{"data":{"norad_id":62223,"epoch":"2026-09-21T06:31:40.045728Z","epoch_age_seconds":110984,"freshness":"FRESH","line1":"1 62223U 24231F   26264.27199127  .00104265  00000+0  85435-3 0  9990","line2":"2 62223  53.1575 216.8414 0001225  79.3688 280.7468 15.69719483104137","mean_motion":15.69719483,"eccentricity":0.0001225,"inclination_deg":53.1575,"raan_deg":216.8414,"arg_perigee_deg":79.3688,"mean_anomaly_deg":280.7468,"bstar":0.00085435,"rev_number":10413,"period_min":91.736136016348,"perigee_km":358.8742288551,"apogee_km":360.52499882549,"semimajor_km":6737.8366138403,"source":"CELESTRAK","updated_at":"2026-09-22T09:00:49.562287Z"}}